Back to catalog

BEIDOU 3M1

AliveNavigationMEO
NORAD 43001·PAYLOAD·🇨🇳 China

Launched Nov 5, 2017 from Xichang Satellite Launch Center

Loading…

Next Passes (next 24 hours)

TLE

FreshSource: CelesTrak SupGP

Epoch: Sep 14, 2026, 00:00 UTC

1 43001C 17069A   26257.00000000  .00000000  00000+0  00000+0 0  2578
2 43001  56.7738  60.1639 0007144 320.5788 219.9619  1.86231295    15

Track BEIDOU 3M1 in real time with AllMySat

Download on the App Store